This demonstration page uses our WeatherBlox Daily Observations layout. Learn more.

39.92423, -83.80882

Hourly Observations for May 11, 2016

Temp ( °F °C ) Dew Point ( °F °C ) Humidity (%) Winds ( mph kmh ) Pressure ( in mb ) Visibility ( mi km ) Precip ( " mm )
12:56 am 00:56 Clear 57 13.8 57 13.8 100 100 ENE 3 6 30.02 1017 10 16.0934 0 0
1:56 am 01:56 Cloudy 58 14.4 58 14.4 100 100 SSE 5 7 30.03 1017 10 16.0934 0 0
2:56 am 02:56 Cloudy 59 15 59 15 100 100 S 5 7 30.02 1017 10 16.0934 0 0
3:56 am 03:56 Cloudy 59 15 59 15 100 100 E 3 6 30.02 1017 10 16.0934 0 0
4:56 am 04:56 Cloudy 58 14.4 58 14.4 100 100 NE 3 6 30.03 1017 10 16.0934 0 0
5:42 am 05:42 Cloudy with Light Rain 59 15 59 15 100 100 NNW 3 6 30.06 1018 9 14.48406 0 0.0254
5:56 am 05:56 Cloudy 59 15 59 15 100 100 Calm 30.04 1017 10 16.0934 0 0.0254
6:06 am 06:06 Cloudy 59 15 59 15 100 100 Calm 30.06 1018 10 16.0934 0 0.0254
6:56 am 06:56 Cloudy 59 15 59 15 100 100 Calm 30.06 1018 10 16.0934 0 0.0254
7:56 am 07:56 Cloudy 60 15.5 60 15.5 100 100 SE 3 6 30.08 1019 10 16.0934 0 0
8:33 am 08:33 Cloudy 61 16 61 16 100 100 SSE 3 6 30.09 1019 9 14.48406 0 0
8:56 am 08:56 Cloudy 60 15.5 60 15.5 100 100 SSE 5 7 30.09 1019 7 11.26538 0 0
9:56 am 09:56 Cloudy with Mist and Fog 61 16.1 61 16.1 100 100 SSW 3 6 30.08 1019 4 6.43736 0 0
10:56 am 10:56 Cloudy 63 17.2 63 17.2 100 100 SSW 3 6 30.08 1019 9 14.48406 0 0
11:38 am 11:38 Cloudy 64 18 63 17 94 94 WSW 6 9 30.09 1019 10 16.0934 0 0
11:56 am 11:56 Cloudy 66 18.8 62 16.6 87 87 W 3 6 30.09 1019 10 16.0934 0 0
12:22 pm 12:22 Cloudy 66 19 63 17 88 88 Calm 30.09 1019 10 16.0934 0 0
12:56 pm 12:56 Mostly Cloudy 69 20.5 62 16.6 78 78 WNW 6 9 30.1 1019 10 16.0934 0 0
1:46 pm 13:46 Partly Cloudy 72 22 63 17 73 73 WNW 7 11 30.09 1019 10 16.0934 0 0
1:56 pm 13:56 Mostly Sunny 73 22.7 62 16.6 69 69 WSW 6 9 30.1 1019 10 16.0934 0 0
2:46 pm 14:46 Mostly Cloudy 73 23 61 16 65 65 VRB 5 7 30.09 1019 10 16.0934 0 0
2:56 pm 14:56 Mostly Cloudy 74 23.3 62 16.6 66 66 W 5 7 30.09 1019 10 16.0934 0 0
3:56 pm 15:56 Mostly Cloudy 74 23.3 61 16.1 64 64 Calm 30.07 1018 10 16.0934 0 0
4:56 pm 16:56 Mostly Sunny 76 24.4 61 16.1 60 60 VRB 3 6 30.04 1017 10 16.0934 0 0
5:56 pm 17:56 Partly Cloudy 77 25 60 15.5 56 56 VRB 5 7 30.05 1018 10 16.0934 0 0
6:56 pm 18:56 Sunny 76 24.4 61 16.1 60 60 NW 3 6 30.04 1017 10 16.0934 0 0
7:56 pm 19:56 Sunny 74 23.3 61 16.1 64 64 Calm 30.04 1017 10 16.0934 0 0
8:56 pm 20:56 Clear 68 20 62 16.6 81 81 ENE 3 6 30.06 1018 10 16.0934 0 0
9:56 pm 21:56 Clear 65 18.3 62 16.6 90 90 ESE 5 7 30.06 1018 10 16.0934 0 0
10:56 pm 22:56 Clear 64 17.7 61 16.1 90 90 ESE 6 9 30.05 1018 10 16.0934 0 0
11:56 pm 23:56 Clear 64 17.7 61 16.1 90 90 ESE 8 13 30.03 1017 10 16.0934 0 0

Powered by AerisWeather